GW0912 Weather Reports


time (UTC)temp
F
wind
direction
speed
knots
gust
knots
rain 1hr
in
rain 24hr
in
rain mn
in
humidity
%
barometer
mb
20260506165223 83 270 0.9 4.3 0.00 0.00 0.00 65 1019.1
20260506164720 84 225 1.7 6.1 0.00 0.00 0.00 63 1019.2
20260506164217 85 83 0.0 5.2 0.00 0.00 0.00 63 1019.3
20260506163714 85 202 2.6 2.6 0.00 0.00 0.00 63 1019.1
20260506163208 84 249 0.0 6.1 0.00 0.00 0.00 62 1019.1
20260506162705 85 0 0.0 1.7 0.00 0.00 0.00 63 1019.1
20260506162202 84 262 0.9 2.6 0.00 0.00 0.00 64 1019.2
20260506161659 84 279 0.0 4.3 0.00 0.00 0.00 64 1019.2
20260506161156 82 26 0.9 3.5 0.00 0.00 0.00 65 1019.4
20260506160654 82 157 0.0 5.2 0.00 0.00 0.00 65 1019.5
20260506160151 81 167 3.5 3.5 0.00 0.00 0.00 67 1019.6
20260506155649 81 180 0.9 7.0 0.00 0.00 0.00 66 1019.5
20260506155146 81 240 2.6 7.0 0.00 0.00 0.00 66 1019.5
20260506153248 84 357 0.0 3.5 0.00 0.00 0.00 61 1019.7
20260506152745 84 307 2.6 3.5 0.00 0.00 0.00 62 1019.5
20260506152242 82 198 1.7 3.5 0.00 0.00 0.00 63 1019.5
20260506151741 82 264 2.6 2.6 0.00 0.00 0.00 62 1019.5
20260506151237 81 255 0.9 7.0 0.00 0.00 0.00 63 1019.7
20260506150734 82 239 1.7 4.3 0.00 0.00 0.00 61 1019.6
20260506150231 82 214 1.7 6.1 0.00 0.00 0.00 61 1019.7
20260506145728 81 144 1.7 5.2 0.00 0.00 0.00 61 1019.5
20260506145224 81 201 5.2 5.2 0.00 0.00 0.00 61 1019.7
20260506144722 80 90 0.0 7.0 0.00 0.00 0.00 63 1019.4
20260506144219 82 125 1.7 3.5 0.00 0.00 0.00 60 1019.6
20260506143716 82 220 7.8 9.6 0.00 0.00 0.00 58 1019.3
20260506143214 82 315 3.5 4.3 0.00 0.00 0.00 61 1019.3
20260506142712 81 257 2.6 5.2 0.00 0.00 0.00 64 1019.1
20260506142210 79 98 0.0 5.2 0.00 0.00 0.00 64 1019.2
20260506141708 80 209 6.1 6.1 0.00 0.00 0.00 63 1019.3
20260506141206 80 203 0.9 4.3 0.00 0.00 0.00 64 1019.3
20260506140703 78 124 0.0 3.5 0.00 0.00 0.00 66 1019.3
20260506140200 80 263 0.9 2.6 0.00 0.00 0.00 66 1019.5
20260506135657 79 216 1.7 2.6 0.00 0.00 0.00 66 1019.3
20260506135153 78 243 1.7 5.2 0.00 0.00 0.00 68 1019.2
20260506134650 78 251 1.7 6.1 0.00 0.00 0.00 67 1019.0
20260506134146 77 220 2.6 7.0 0.00 0.00 0.00 69 1019.2
20260506133643 77 99 1.7 3.5 0.00 0.00 0.00 70 1019.1
20260506133140 77 245 4.3 6.1 0.00 0.00 0.00 69 1019.1
20260506132637 78 65 1.7 5.2 0.00 0.00 0.00 69 1019.2
20260506132134 77 209 4.3 5.2 0.00 0.00 0.00 70 1019.3
20260506131631 77 210 2.6 2.6 0.00 0.00 0.00 72 1019.0
20260506131127 76 74 1.7 4.3 0.00 0.00 0.00 73 1019.1
20260506130624 76 162 1.7 5.2 0.00 0.00 0.00 74 1018.9
20260506130122 76 251 2.6 4.3 0.00 0.00 0.00 75 1019.1
20260506125620 77 337 0.9 1.7 0.00 0.00 0.00 76 1019.2
20260506125117 76 246 0.0 2.6 0.00 0.00 0.00 77 1019.0
20260506124615 75 60 0.0 3.5 0.00 0.00 0.00 78 1019.1
20260506124113 74 246 2.6 5.2 0.00 0.00 0.00 79 1018.9
20260506123610 74 159 0.0 2.6 0.00 0.00 0.00 80 1018.6
20260506123109 73 209 0.0 4.3 0.00 0.00 0.00 81 1018.8
20260506122605 72 234 0.9 3.5 0.00 0.00 0.00 83 1018.9
20260506122103 71 220 1.7 3.5 0.00 0.00 0.00 85 1019.0
20260506121600 71 90 0.0 2.6 0.00 0.00 0.00 86 1018.7
20260506121056 70 213 2.6 2.6 0.00 0.00 0.00 87 1018.8
20260506120555 70 210 2.6 2.6 0.00 0.00 0.00 87 1018.9
20260506120051 69 84 1.7 3.5 0.00 0.00 0.00 88 1018.9
20260506115549 69 233 1.7 1.7 0.00 0.00 0.00 89 1018.8
20260506115048 69 208 0.0 4.3 0.00 0.00 0.00 89 1018.8
20260506114545 68 180 0.0 1.7 0.00 0.00 0.00 91 1018.7
20260506114043 68 81 0.0 0.0 0.00 0.00 0.00 92 1018.8
20260506113541 67 6 0.0 0.9 0.00 0.00 0.00 93 1018.7
20260506113038 66 105 0.0 2.6 0.00 0.00 0.00 94 1018.8
20260506112534 66 99 0.0 1.7 0.00 0.00 0.00 94 1018.5
20260506112031 66 15 0.0 1.7 0.00 0.00 0.00 95 1018.5
20260506111530 65 96 1.7 2.6 0.00 0.00 0.00 95 1018.5
20260506111026 65 99 0.0 0.9 0.00 0.00 0.00 96 1018.6
20260506110524 64 270 0.0 0.0 0.00 0.00 0.00 96 1018.5
20260506110021 64 98 0.0 1.7 0.00 0.00 0.00 96 1018.3
20260506105517 63 90 0.0 0.0 0.00 0.00 0.00 95 1018.4
20260506105015 64 90 0.0 0.9 0.00 0.00 0.00 95 1018.7
20260506104513 63 90 0.0 0.0 0.00 0.00 0.00 95 1018.5
20260506104010 63 90 0.0 0.0 0.00 0.00 0.00 95 1018.5
20260506103507 64 63 1.7 1.7 0.00 0.00 0.00 95 1018.3
20260506103004 63 123 0.0 1.7 0.00 0.00 0.00 95 1018.3
20260506102502 63 84 0.0 0.0 0.00 0.00 0.00 95 1018.2
20260506101959 63 84 0.0 1.7 0.00 0.00 0.00 96 1018.2
20260506101455 63 60 0.9 1.7 0.00 0.00 0.00 96 1018.3
20260506100953 63 114 0.0 0.0 0.00 0.00 0.00 96 1018.3
20260506100451 63 98 0.0 0.0 0.00 0.00 0.00 96 1018.2
20260506095949 63 98 0.0 0.9 0.00 0.00 0.00 96 1018.1
20260506095447 63 81 0.0 0.0 0.00 0.00 0.00 96 1018.0
20260506094943 63 66 0.0 0.0 0.00 0.00 0.00 96 1018.0
20260506094442 62 66 0.0 0.9 0.00 0.00 0.00 96 1018.2
20260506093939 62 99 0.0 0.0 0.00 0.00 0.00 96 1018.0
20260506093437 62 106 0.0 0.0 0.00 0.00 0.00 95 1018.2
20260506092934 62 106 0.0 0.0 0.00 0.00 0.00 95 1018.2
20260506092432 62 106 0.0 0.0 0.00 0.00 0.00 95 1018.3
20260506091928 63 99 0.0 0.0 0.00 0.00 0.00 95 1018.2
20260506091427 63 90 0.0 0.0 0.00 0.00 0.00 95 1018.1
20260506090923 63 77 0.0 0.0 0.00 0.00 0.00 95 1018.3
20260506090421 63 82 0.0 0.0 0.00 0.00 0.00 95 1018.3
20260506085918 62 82 0.0 0.9 0.00 0.00 0.00 95 1018.2
20260506085414 62 270 0.0 0.0 0.00 0.00 0.00 94 1018.3
20260506084910 63 270 0.0 0.0 0.00 0.00 0.00 94 1018.4
20260506084408 63 270 0.0 0.0 0.00 0.00 0.00 94 1018.5
20260506083904 63 270 0.0 0.9 0.00 0.00 0.00 93 1018.5
20260506083401 63 261 0.0 0.9 0.00 0.00 0.00 92 1018.3
20260506082859 64 270 0.0 0.0 0.00 0.00 0.00 92 1018.3
20260506082355 64 270 0.0 0.0 0.00 0.00 0.00 91 1018.5
20260506081851 64 270 0.0 0.9 0.00 0.00 0.00 91 1018.4
20260506081350 65 82 0.0 0.0 0.00 0.00 0.00 90 1018.3
20260506080847 65 66 0.0 0.9 0.00 0.00 0.00 90 1018.3
20260506080343 65 66 0.0 0.9 0.00 0.00 0.00 89 1018.4
20260506073327 65 69 0.0 0.9 0.00 0.00 0.00 89 1018.3
20260506072824 65 270 0.0 0.9 0.00 0.00 0.00 89 1018.1
20260506072322 65 75 0.0 0.0 0.00 0.00 0.00 88 1018.0
20260506071819 65 60 0.0 1.7 0.00 0.00 0.00 88 1017.9
20260506071317 66 66 0.9 1.7 0.00 0.00 0.00 88 1018.0
20260506070814 65 90 0.0 2.6 0.00 0.00 0.00 89 1018.1
20260506070311 65 234 0.0 0.0 0.00 0.00 0.00 89 1018.1
20260506062248 65 0 0.0 0.9 0.00 0.00 0.00 92 1018.5
20260506061744 64 117 0.9 1.7 0.00 0.00 0.00 92 1018.3
20260506061241 64 82 0.0 0.9 0.00 0.00 0.00 92 1018.2
20260506060739 64 270 0.0 0.0 0.00 0.00 0.00 91 1018.3
20260506060237 64 263 0.9 0.9 0.00 0.00 0.00 90 1018.3
20260506051209 64 120 0.0 0.9 0.00 0.00 0.00 87 1019.0
20260506050707 65 98 0.0 0.9 0.00 0.00 0.00 87 1019.0
20260506050203 65 294 0.0 0.0 0.00 0.00 0.00 87 1019.0
20260506044655 65 0 0.0 0.9 0.00 0.00 0.00 86 1019.3
20260506044151 65 117 0.0 1.7 0.00 0.00 0.00 87 1019.5
20260506043649 64 257 0.0 0.9 0.00 0.00 0.00 87 1019.4
20260506043146 64 114 0.0 0.9 0.00 0.00 0.00 88 1019.1
20260506042646 64 98 0.0 0.0 0.00 0.00 0.00 88 1019.3
20260506042143 63 71 0.0 0.0 0.00 0.00 0.00 89 1019.5
20260506041641 63 270 0.0 0.0 0.00 0.00 0.00 89 1019.3
20260506041137 63 270 0.0 0.0 0.00 0.00 0.00 89 1019.3
20260506040635 63 270 0.0 0.0 0.00 0.00 0.00 89 1019.3
20260506040132 63 262 0.0 0.0 0.00 0.00 0.00 88 1019.2
20260506035629 63 262 0.0 0.9 0.00 0.00 0.00 87 1019.5
20260506035125 63 263 0.0 0.9 0.00 0.00 0.00 87 1019.3
20260506034623 63 270 0.0 0.0 0.00 0.00 0.00 85 1019.2
20260506034120 64 270 0.0 0.0 0.00 0.00 0.00 84 1019.3
20260506033617 65 270 0.0 0.0 0.00 0.00 0.00 83 1019.0
20260506033114 65 132 0.0 1.7 0.00 0.00 0.00 83 1019.2
20260506032611 66 90 0.0 0.0 0.00 0.00 0.00 82 1019.2
20260506032108 66 95 1.7 1.7 0.00 0.00 0.00 81 1019.1
20260506031605 66 255 0.0 1.7 0.00 0.00 0.00 80 1019.1
20260506031102 66 103 0.9 2.6 0.00 0.00 0.00 80 1019.3
20260506030601 66 90 0.0 1.7 0.00 0.00 0.00 81 1019.1
20260506030057 66 97 0.0 2.6 0.00 0.00 0.00 81 1019.2
20260506025554 66 63 0.0 0.9 0.00 0.00 0.00 82 1019.2
20260506025050 66 111 0.0 1.7 0.00 0.00 0.00 81 1019.3
20260506024548 65 82 0.0 1.7 0.00 0.00 0.00 83 1019.4
20260506024044 65 98 0.0 0.0 0.00 0.00 0.00 82 1019.6
20260506023539 66 98 0.0 0.9 0.00 0.00 0.00 80 1019.7
20260506023037 66 120 1.7 1.7 0.00 0.00 0.00 80 1019.6
20260506022535 65 124 0.0 1.7 0.00 0.00 0.00 81 1019.6
20260506022032 65 278 0.0 0.0 0.00 0.00 0.00 80 1019.7
20260506021530 66 278 0.0 0.9 0.00 0.00 0.00 79 1019.7
20260506021027 66 270 0.0 0.0 0.00 0.00 0.00 77 1019.4
20260506020524 67 120 0.0 1.7 0.00 0.00 0.00 77 1019.4
20260506020022 67 94 1.7 1.7 0.00 0.00 0.00 76 1019.4
20260506015519 67 283 0.0 2.6 0.00 0.00 0.00 76 1019.4
20260506015016 67 125 0.0 2.6 0.00 0.00 0.00 75 1019.3
20260506014513 67 90 0.9 1.7 0.00 0.00 0.00 75 1019.2
20260506014009 67 94 0.0 3.5 0.00 0.00 0.00 75 1019.0
20260506013507 68 123 1.7 2.6 0.00 0.00 0.00 75 1019.1
20260506013004 68 90 1.7 2.6 0.00 0.00 0.00 74 1019.0
20260506012459 68 102 1.7 3.5 0.00 0.00 0.00 75 1018.9
20260506011957 67 352 0.0 3.5 0.00 0.00 0.00 76 1019.2
20260506011454 67 123 0.0 2.6 0.00 0.00 0.00 77 1019.3
20260506010950 67 285 0.0 0.9 0.00 0.00 0.00 77 1019.4
20260506010450 67 90 0.0 1.7 0.00 0.00 0.00 76 1019.2
20260506005945 68 90 1.7 1.7 0.00 0.00 0.00 75 1019.2
20260506005443 68 82 0.9 2.6 0.00 0.00 0.00 76 1018.8
20260506004938 68 90 1.7 2.6 0.00 0.00 0.00 76 1018.8
20260506004437 68 90 0.0 2.6 0.00 0.00 0.00 75 1018.8
20260506003932 68 90 1.7 3.5 0.00 0.00 0.00 75 1019.0
20260506003429 68 144 2.6 3.5 0.00 0.00 0.00 74 1019.2
20260506002925 69 83 0.0 2.6 0.00 0.00 0.00 74 1019.2
20260506002421 69 74 0.0 1.7 0.00 0.00 0.00 74 1019.0
20260506001917 69 69 0.9 3.5 0.00 0.00 0.00 73 1019.4
20260506001415 69 63 0.0 5.2 0.00 0.00 0.00 72 1019.2
20260506000912 69 114 3.5 5.2 0.00 0.00 0.00 72 1019.2
20260506000409 69 120 2.6 4.3 0.00 0.00 0.00 70 1019.3
20260505235906 70 54 0.0 1.7 0.00 0.00 0.00 70 1019.1
20260505235404 70 77 3.5 3.5 0.00 0.00 0.00 68 1019.1
20260505234900 70 102 1.7 5.2 0.00 0.00 0.00 67 1019.0
20260505234358 70 123 1.7 2.6 0.00 0.00 0.00 67 1018.9
20260505233854 71 90 0.0 3.5 0.00 0.00 0.00 67 1018.9
20260505233353 71 246 0.0 2.6 0.00 0.00 0.00 66 1018.9
20260505232850 71 93 2.6 5.2 0.00 0.00 0.00 65 1018.9
20260505232348 71 128 3.5 6.1 0.00 0.00 0.00 65 1019.0
20260505231844 71 117 4.3 8.7 0.00 0.00 0.00 64 1018.9
20260505231341 72 109 7.8 7.8 0.00 0.00 0.00 65 1019.0
20260505230839 72 348 0.0 4.3 0.00 0.00 0.00 65 1019.2
20260505230336 72 257 1.7 4.3 0.00 0.00 0.00 65 1019.0
20260505225833 73 254 0.0 3.5 0.00 0.00 0.00 65 1019.2
20260505225330 73 279 0.0 4.3 0.00 0.00 0.00 65 1019.1
20260505224825 73 25 0.0 2.6 0.00 0.00 0.00 63 1019.0
20260505224323 73 99 1.7 11.3 0.00 0.00 0.00 62 1019.1
20260505223820 73 110 4.3 7.0 0.00 0.00 0.00 63 1019.0
20260505223317 74 121 4.3 8.7 0.00 0.00 0.00 61 1018.9
20260505222813 74 52 4.3 4.3 0.00 0.00 0.00 61 1019.0
20260505222309 74 140 2.6 7.0 0.00 0.00 0.00 60 1019.3
20260505221807 75 270 0.9 3.5 0.00 0.00 0.00 60 1019.1
20260505221303 75 123 2.6 6.1 0.00 0.00 0.00 59 1019.1
20260505220800 75 101 2.6 6.1 0.00 0.00 0.00 59 1019.1
20260505220257 75 57 5.2 5.2 0.00 0.00 0.00 59 1019.2
20260505215755 76 127 2.6 4.3 0.00 0.00 0.00 58 1019.4
20260505215253 75 148 4.3 8.7 0.00 0.00 0.00 59 1019.3
20260505214750 75 106 3.5 5.2 0.00 0.00 0.00 61 1019.1
20260505214248 75 170 2.6 5.2 0.00 0.00 0.00 60 1019.3
20260505213745 75 140 1.7 8.7 0.00 0.00 0.00 60 1019.4
20260505213242 77 20 0.9 3.5 0.00 0.00 0.00 58 1019.4
20260505212738 76 168 1.7 7.8 0.00 0.00 0.00 59 1019.4
20260505212235 76 53 3.5 8.7 0.00 0.00 0.00 59 1019.4
20260505211732 76 66 2.6 7.0 0.00 0.00 0.00 59 1019.3
20260505211230 77 90 1.7 4.3 0.00 0.00 0.00 57 1019.3
20260505210726 77 281 2.6 6.1 0.00 0.00 0.00 57 1019.3
20260505210223 77 60 0.9 4.3 0.00 0.00 0.00 57 1019.3
20260505205720 77 90 3.5 6.1 0.00 0.00 0.00 55 1019.3
20260505205218 77 106 8.7 9.6 0.00 0.00 0.00 54 1019.4
20260505204714 77 95 0.0 5.2 0.00 0.00 0.00 56 1019.2
20260505204213 76 139 1.7 12.2 0.00 0.00 0.00 56 1019.1
20260505203709 77 94 4.3 7.0 0.00 0.00 0.00 54 1019.1
20260505203206 76 120 3.5 10.4 0.00 0.00 0.00 55 1019.2
20260505202702 77 129 4.3 7.0 0.00 0.00 0.00 57 1019.3
20260505202158 77 135 1.7 7.8 0.00 0.00 0.00 58 1019.4
20260505201654 76 35 0.0 10.4 0.00 0.00 0.00 58 1019.4
20260505201153 77 95 1.7 11.3 0.00 0.00 0.00 57 1019.3
20260505200651 77 74 2.6 7.8 0.00 0.00 0.00 58 1019.5
20260505200147 78 67 6.1 7.0 0.00 0.00 0.00 56 1019.5
20260505195643 78 270 3.5 7.0 0.00 0.00 0.00 54 1019.5
20260505195141 78 150 2.6 4.3 0.00 0.00 0.00 54 1019.8
20260505194638 78 221 1.7 7.0 0.00 0.00 0.00 55 1019.7
20260505194134 78 241 1.7 7.8 0.00 0.00 0.00 56 1020.0
20260505193630 78 195 0.9 7.0 0.00 0.00 0.00 56 1020.2
20260505193127 78 135 3.5 9.6 0.00 0.00 0.00 55 1020.4
20260505192626 78 203 0.0 8.7 0.00 0.00 0.00 56 1020.3
20260505192123 78 228 3.5 8.7 0.00 0.00 0.00 55 1020.5
20260505191622 79 100 4.3 7.8 0.00 0.00 0.00 54 1020.4
20260505191119 78 130 5.2 5.2 0.00 0.00 0.00 55 1020.5
20260505190615 77 180 0.0 8.7 0.00 0.00 0.00 56 1020.5
20260505190110 79 71 2.6 4.3 0.00 0.00 0.00 53 1020.6
20260505185607 76 99 2.6 7.0 0.00 0.00 0.00 56 1020.6
20260505185103 78 95 3.5 9.6 0.00 0.00 0.00 55 1020.7
20260505184600 78 256 6.1 7.8 0.00 0.00 0.00 54 1020.4
20260505184056 78 297 0.0 5.2 0.00 0.00 0.00 56 1020.4
20260505183553 78 274 2.6 12.2 0.00 0.00 0.00 53 1020.5
20260505183051 78 53 2.6 4.3 0.00 0.00 0.00 55 1020.1
20260505182547 77 82 1.7 10.4 0.00 0.00 0.00 54 1020.2
20260505182044 79 206 1.7 3.5 0.00 0.00 0.00 54 1020.4
20260505181541 78 117 0.0 5.2 0.00 0.00 0.00 59 1020.6
20260505181038 78 170 1.7 7.0 0.00 0.00 0.00 58 1020.3
20260505180533 77 109 0.9 8.7 0.00 0.00 0.00 60 1020.4
20260505180032 77 56 1.7 7.8 0.00 0.00 0.00 59 1020.2
20260505175532 77 265 1.7 4.3 0.00 0.00 0.00 59 1020.6
20260505175029 77 78 1.7 7.0 0.00 0.00 0.00 60 1020.3
20260505174526 77 48 0.0 4.3 0.00 0.00 0.00 60 1020.2
20260505174022 78 194 2.6 6.1 0.00 0.00 0.00 58 1020.1
20260505173519 78 287 0.0 4.3 0.00 0.00 0.00 59 1020.3
20260505173016 78 86 5.2 6.1 0.00 0.00 0.00 60 1020.5
20260505172514 77 211 2.6 6.1 0.00 0.00 0.00 60 1020.6
20260505172009 77 135 3.5 7.0 0.00 0.00 0.00 60 1020.8
20260505171505 76 154 0.0 6.1 0.00 0.00 0.00 61 1020.6
20260505171002 76 71 4.3 10.4 0.00 0.00 0.00 60 1020.5
20260505170458 77 192 0.9 6.1 0.00 0.00 0.00 60 1020.7
20260505165953 77 200 2.6 6.1 0.00 0.00 0.00 60 1020.8